NOZ76Z ENGM-LIMC

Flight info

Callsign NOZ76Z
Flight time 2h 19m
Altitude 36000
Route VIPPA DCT DOSUR/N0440F350 DCT WRB/N0439F360 DCT XAROL DCT BOMBI DCT GIGET DCT ABUKA DCT KRH DCT NATOR/N0439F370 DCT DITON DCT BASGO/N0422F310 Z424 RIXUV
Aircraft B738/M-SDE2E3FGHIRWXY/LB1

Departure

Time 2026-05-04 09:55
Airport Oslo-Gardermoen International Airport (ENGM)

Arrival

Time 2026-05-04 12:14
Airport Milan Malpensa International Airport (LIMC)
Time Latitude Longitude Altitude Speed Heading
2026-05-04 08:50 60.19631 11.09954 678 ft 0 kts 106°
2026-05-04 09:44 60.19633 11.09944 684 ft 4 kts 106°
2026-05-04 09:44 60.19640 11.09892 678 ft 4 kts 106°
2026-05-04 09:46 60.19645 11.09863 682 ft 0 kts 106°
2026-05-04 09:49 60.19624 11.09865 679 ft 5 kts 216°
2026-05-04 09:49 60.19628 11.09772 681 ft 9 kts 288°
2026-05-04 09:49 60.19648 11.09632 682 ft 12 kts 285°
2026-05-04 09:51 60.19643 11.08595 677 ft 16 kts 197°
2026-05-04 09:51 60.19535 11.08533 677 ft 17 kts 196°
2026-05-04 09:51 60.19407 11.08459 675 ft 21 kts 195°
2026-05-04 09:51 60.19253 11.08371 673 ft 25 kts 196°
2026-05-04 09:52 60.19086 11.08274 672 ft 24 kts 196°
2026-05-04 09:52 60.18929 11.08184 671 ft 23 kts 196°
2026-05-04 09:52 60.18778 11.08096 670 ft 22 kts 195°
2026-05-04 09:52 60.18632 11.08011 668 ft 22 kts 197°
2026-05-04 09:53 60.18537 11.07925 667 ft 11 kts 246°
2026-05-04 09:53 60.18554 11.07765 664 ft 12 kts 285°
2026-05-04 09:53 60.18577 11.07600 663 ft 12 kts 286°
2026-05-04 09:53 60.18622 11.07465 665 ft 12 kts 335°
2026-05-04 09:54 60.18702 11.07492 666 ft 14 kts 15°
2026-05-04 09:54 60.18878 11.07591 667 ft 53 kts 15°
2026-05-04 09:54 60.19448 11.07922 672 ft 115 kts 16°
2026-05-04 09:54 60.20394 11.08454 679 ft 165 kts 17°
2026-05-04 09:55 60.21535 11.09165 1209 ft 171 kts 10°
2026-05-04 09:55 60.22302 11.09592 1722 ft 176 kts
2026-05-04 09:55 60.23579 11.10263 2156 ft 205 kts
2026-05-04 09:55 60.25049 11.11043 2544 ft 224 kts 10°
2026-05-04 09:56 60.26634 11.11349 2971 ft 240 kts 348°
2026-05-04 09:56 60.28314 11.10784 3610 ft 251 kts 346°
2026-05-04 09:56 60.30000 11.09857 4468 ft 251 kts 327°
2026-05-04 09:56 60.31252 11.07461 5327 ft 249 kts 299°
2026-05-04 09:57 60.31798 11.04179 6220 ft 249 kts 275°
2026-05-04 09:57 60.31614 11.00704 6730 ft 253 kts 250°
2026-05-04 09:57 60.30811 10.97567 7428 ft 257 kts 252°
2026-05-04 09:57 60.30655 10.94034 8247 ft 256 kts 281°
2026-05-04 09:58 60.31120 10.90581 9193 ft 255 kts 284°
2026-05-04 09:58 60.31233 10.87034 9966 ft 260 kts 258°
2026-05-04 09:58 60.30421 10.83617 10212 ft 287 kts 234°
2026-05-04 10:00 60.14589 10.73921 14078 ft 365 kts 198°
2026-05-04 10:00 60.12095 10.72803 14706 ft 368 kts 198°
2026-05-04 10:02 59.94979 10.65263 18521 ft 391 kts 199°
2026-05-04 10:04 59.76083 10.57113 22088 ft 405 kts 199°
2026-05-04 10:04 59.73357 10.55944 22455 ft 408 kts 199°
2026-05-04 10:04 59.70566 10.54747 22830 ft 412 kts 199°
2026-05-04 10:04 59.67752 10.53545 23282 ft 414 kts 199°
2026-05-04 10:05 59.64932 10.52344 23661 ft 415 kts 199°
2026-05-04 10:05 59.62104 10.51142 24033 ft 417 kts 199°
2026-05-04 10:05 59.59249 10.49928 24385 ft 420 kts 198°
2026-05-04 10:05 59.56378 10.48710 24728 ft 422 kts 198°
2026-05-04 10:06 59.53496 10.47489 25055 ft 424 kts 198°
2026-05-04 10:06 59.50601 10.46265 25379 ft 426 kts 198°
2026-05-04 10:06 59.47726 10.45052 25685 ft 428 kts 198°
2026-05-04 10:08 59.29886 10.37570 27302 ft 442 kts 198°
2026-05-04 10:08 59.26913 10.36332 27775 ft 442 kts 198°
2026-05-04 10:08 59.23900 10.35081 28209 ft 440 kts 198°
2026-05-04 10:08 59.20895 10.33836 28643 ft 438 kts 198°
2026-05-04 10:09 59.17917 10.32602 28963 ft 438 kts 198°
2026-05-04 10:09 59.14916 10.31358 29177 ft 441 kts 198°
2026-05-04 10:09 59.11904 10.30111 29413 ft 442 kts 198°
2026-05-04 10:09 59.08900 10.28873 29848 ft 440 kts 198°
2026-05-04 10:10 59.05911 10.27645 30221 ft 439 kts 198°
2026-05-04 10:10 59.02926 10.26418 30494 ft 439 kts 198°
2026-05-04 10:10 58.99932 10.25187 30741 ft 440 kts 198°
2026-05-04 10:10 58.96935 10.23959 31029 ft 440 kts 198°
2026-05-04 10:11 58.93976 10.22767 31332 ft 440 kts 197°
2026-05-04 10:11 58.90947 10.21764 31553 ft 442 kts 195°
2026-05-04 10:11 58.87887 10.20884 31728 ft 445 kts 194°
2026-05-04 10:11 58.84806 10.20052 31925 ft 447 kts 194°
2026-05-04 10:12 58.81719 10.19235 32240 ft 446 kts 194°
2026-05-04 10:12 58.78635 10.18413 32583 ft 444 kts 194°
2026-05-04 10:12 58.75609 10.17595 32851 ft 444 kts 194°
2026-05-04 10:12 58.72545 10.16754 33088 ft 445 kts 194°
2026-05-04 10:13 58.69478 10.15904 33343 ft 445 kts 194°
2026-05-04 10:13 58.66414 10.15052 33626 ft 444 kts 194°
2026-05-04 10:13 58.63348 10.14199 33873 ft 444 kts 194°
2026-05-04 10:13 58.60317 10.13356 34019 ft 445 kts 194°
2026-05-04 10:14 58.57250 10.12503 34186 ft 446 kts 194°
2026-05-04 10:14 58.54178 10.11651 34399 ft 445 kts 194°
2026-05-04 10:16 58.32734 10.05756 35768 ft 445 kts 194°
2026-05-04 10:16 58.29657 10.04914 35812 ft 447 kts 194°
2026-05-04 10:16 58.23493 10.03233 35823 ft 450 kts 193°
2026-05-04 10:17 58.17283 10.01550 35821 ft 449 kts 193°
2026-05-04 10:19 57.92606 9.94915 35834 ft 448 kts 193°
2026-05-04 10:19 57.86451 9.93273 35842 ft 448 kts 193°
2026-05-04 10:20 57.80266 9.91629 35803 ft 448 kts 193°
2026-05-04 10:20 57.74091 9.89994 35836 ft 448 kts 193°
2026-05-04 10:21 57.67951 9.88374 35848 ft 448 kts 193°
2026-05-04 10:21 57.61767 9.86747 35855 ft 449 kts 193°
2026-05-04 10:22 57.52470 9.84312 35839 ft 449 kts 193°
2026-05-04 10:23 57.46307 9.82706 35856 ft 449 kts 193°
2026-05-04 10:25 57.21494 9.76292 35875 ft 449 kts 193°
2026-05-04 10:25 57.15328 9.74711 35886 ft 449 kts 193°
2026-05-04 10:26 57.09120 9.73125 35884 ft 449 kts 193°
2026-05-04 10:26 57.02923 9.71547 35886 ft 449 kts 193°
2026-05-04 10:27 56.96722 9.69974 35892 ft 448 kts 192°
2026-05-04 10:27 56.90571 9.68418 35887 ft 449 kts 192°
2026-05-04 10:28 56.84368 9.66855 35898 ft 448 kts 192°
2026-05-04 10:28 56.78199 9.65305 35899 ft 448 kts 192°
2026-05-04 10:29 56.72006 9.63754 35881 ft 448 kts 192°
2026-05-04 10:29 56.65870 9.62223 35902 ft 447 kts 192°
2026-05-04 10:30 56.59694 9.60687 35911 ft 446 kts 192°
2026-05-04 10:30 56.53546 9.59163 35920 ft 446 kts 192°
2026-05-04 10:31 56.47415 9.57647 35920 ft 446 kts 192°
2026-05-04 10:32 56.25927 9.52376 35937 ft 445 kts 192°
2026-05-04 10:33 56.19822 9.50889 35914 ft 445 kts 192°
2026-05-04 10:33 56.13686 9.49399 35939 ft 444 kts 192°
2026-05-04 10:34 56.07545 9.47913 35946 ft 444 kts 192°
2026-05-04 10:34 56.01439 9.46440 35945 ft 445 kts 192°
2026-05-04 10:35 55.95293 9.44962 35948 ft 445 kts 192°
2026-05-04 10:35 55.89182 9.43498 35948 ft 445 kts 192°
2026-05-04 10:36 55.83044 9.42032 35951 ft 445 kts 192°
2026-05-04 10:36 55.76892 9.40567 35959 ft 445 kts 192°
2026-05-04 10:37 55.70773 9.39114 35956 ft 446 kts 192°
2026-05-04 10:37 55.64613 9.37656 35957 ft 446 kts 192°
2026-05-04 10:39 55.43105 9.32603 35964 ft 446 kts 192°
2026-05-04 10:40 55.37979 9.31407 35968 ft 446 kts 192°
2026-05-04 10:40 55.31824 9.29974 35957 ft 446 kts 192°
2026-05-04 10:41 55.25676 9.28549 35965 ft 445 kts 192°
2026-05-04 10:41 55.19562 9.27135 35968 ft 444 kts 192°
2026-05-04 10:42 55.13411 9.25717 35965 ft 443 kts 192°
2026-05-04 10:42 55.07335 9.24321 35970 ft 442 kts 192°
2026-05-04 10:43 55.01219 9.22919 35968 ft 442 kts 192°
2026-05-04 10:45 54.76734 9.18989 35973 ft 445 kts 185°
2026-05-04 10:45 54.70543 9.18943 35981 ft 445 kts 185°
2026-05-04 10:46 54.64344 9.18836 35959 ft 444 kts 185°
2026-05-04 10:46 54.58175 9.18686 35970 ft 442 kts 186°
2026-05-04 10:47 54.52042 9.18523 35975 ft 441 kts 186°
2026-05-04 10:47 54.45884 9.18357 35979 ft 441 kts 186°
2026-05-04 10:49 54.21415 9.17714 35979 ft 439 kts 185°
2026-05-04 10:50 54.15295 9.17555 35990 ft 439 kts 185°
2026-05-04 10:51 53.94007 9.17004 36213 ft 439 kts 185°
2026-05-04 10:52 53.90952 9.16926 36415 ft 439 kts 185°
2026-05-04 10:52 53.87893 9.16848 36581 ft 439 kts 185°
2026-05-04 10:52 53.84836 9.16769 36719 ft 440 kts 185°
2026-05-04 10:54 53.63308 9.16223 36965 ft 442 kts 185°
2026-05-04 10:54 53.60240 9.16146 36988 ft 441 kts 185°
2026-05-04 10:56 53.35670 9.15526 36977 ft 443 kts 186°
2026-05-04 10:57 53.29481 9.15371 36985 ft 444 kts 186°
2026-05-04 10:57 53.23276 9.15217 36988 ft 445 kts 186°
2026-05-04 10:58 53.17094 9.15064 36987 ft 446 kts 186°
2026-05-04 10:58 53.10901 9.14911 36987 ft 446 kts 186°
2026-05-04 10:59 53.04674 9.14758 36987 ft 446 kts 186°
2026-05-04 10:59 52.98457 9.14605 36988 ft 446 kts 186°
2026-05-04 11:00 52.92283 9.14454 36975 ft 446 kts 186°
2026-05-04 11:02 52.67722 9.13858 36987 ft 438 kts 186°
2026-05-04 11:05 52.22567 9.12774 36997 ft 429 kts 186°
2026-05-04 11:06 52.16605 9.12632 36974 ft 430 kts 186°
2026-05-04 11:06 52.10627 9.12491 36982 ft 429 kts 186°
2026-05-04 11:10 51.69137 9.11520 36965 ft 425 kts 186°
2026-05-04 11:12 51.45690 9.09509 36992 ft 417 kts 197°
2026-05-04 11:12 51.40040 9.07509 36981 ft 418 kts 196°
2026-05-04 11:13 51.34332 9.05561 36977 ft 420 kts 196°
2026-05-04 11:13 51.28565 9.03898 36996 ft 421 kts 192°
2026-05-04 11:14 51.22783 9.02764 36987 ft 421 kts 191°
2026-05-04 11:16 50.99572 8.98242 36996 ft 421 kts 191°
2026-05-04 11:16 50.93733 8.97087 36986 ft 421 kts 191°
2026-05-04 11:17 50.87936 8.95944 36995 ft 422 kts 191°
2026-05-04 11:19 50.64587 8.91370 36995 ft 424 kts 191°
2026-05-04 11:19 50.58719 8.90228 36997 ft 424 kts 191°
2026-05-04 11:20 50.52855 8.89090 36982 ft 424 kts 191°
2026-05-04 11:20 50.47018 8.87959 36996 ft 425 kts 191°
2026-05-04 11:22 50.23485 8.83429 36998 ft 427 kts 190°
2026-05-04 11:23 50.17586 8.82301 36996 ft 427 kts 190°
2026-05-04 11:25 49.96911 8.78225 37000 ft 429 kts 191°
2026-05-04 11:25 49.91039 8.76992 37001 ft 428 kts 191°
2026-05-04 11:27 49.65576 8.71747 37021 ft 425 kts 191°
2026-05-04 11:28 49.59704 8.70565 37017 ft 425 kts 191°
2026-05-04 11:28 49.53835 8.69385 37016 ft 424 kts 191°
2026-05-04 11:29 49.48007 8.68214 37022 ft 424 kts 191°
2026-05-04 11:29 49.42138 8.67032 37019 ft 425 kts 191°
2026-05-04 11:33 49.00952 8.58754 37019 ft 428 kts 190°
2026-05-04 11:33 48.95085 8.57184 37017 ft 427 kts 194°
2026-05-04 11:34 48.89271 8.55250 37001 ft 427 kts 195°
2026-05-04 11:34 48.83501 8.53332 37013 ft 426 kts 195°
2026-05-04 11:35 48.77708 8.51445 37009 ft 425 kts 194°
2026-05-04 11:35 48.71896 8.49573 37010 ft 424 kts 194°
2026-05-04 11:36 48.66155 8.47732 37018 ft 424 kts 194°
2026-05-04 11:36 48.60354 8.45875 37001 ft 424 kts 194°
2026-05-04 11:37 48.54568 8.44027 37009 ft 424 kts 194°
2026-05-04 11:37 48.48809 8.42191 37006 ft 424 kts 194°
2026-05-04 11:38 48.43024 8.40351 37008 ft 424 kts 194°
2026-05-04 11:38 48.37282 8.38530 37022 ft 424 kts 194°
2026-05-04 11:39 48.31489 8.36696 36998 ft 425 kts 194°
2026-05-04 11:40 48.13969 8.32022 37018 ft 431 kts 182°
2026-05-04 11:41 48.10972 8.32090 37006 ft 431 kts 182°
2026-05-04 11:41 48.05005 8.32252 37012 ft 431 kts 182°
2026-05-04 11:42 47.98994 8.32375 37004 ft 432 kts 182°
2026-05-04 11:42 47.92985 8.32468 37012 ft 431 kts 182°
2026-05-04 11:43 47.86968 8.32551 37004 ft 431 kts 182°
2026-05-04 11:43 47.80952 8.32634 37005 ft 432 kts 182°
2026-05-04 11:44 47.74985 8.32716 36998 ft 432 kts 182°
2026-05-04 11:44 47.68968 8.32800 37006 ft 432 kts 182°
2026-05-04 11:45 47.62942 8.32883 37003 ft 433 kts 182°
2026-05-04 11:45 47.58755 8.32941 36998 ft 433 kts 182°
2026-05-04 11:46 47.52729 8.33115 36992 ft 435 kts 179°
2026-05-04 11:46 47.50056 8.33500 36746 ft 438 kts 177°
2026-05-04 11:46 47.48530 8.33766 36600 ft 438 kts 176°
2026-05-04 11:46 47.45499 8.34343 36346 ft 437 kts 176°
2026-05-04 11:47 47.42481 8.34932 36072 ft 437 kts 175°
2026-05-04 11:47 47.39500 8.35503 35821 ft 438 kts 175°
2026-05-04 11:47 47.36460 8.36068 35582 ft 438 kts 176°
2026-05-04 11:47 47.33428 8.36615 35330 ft 439 kts 176°
2026-05-04 11:48 47.30385 8.37154 35078 ft 439 kts 176°
2026-05-04 11:48 47.27389 8.37677 34834 ft 439 kts 176°
2026-05-04 11:48 47.24354 8.38204 34591 ft 439 kts 176°
2026-05-04 11:48 47.21315 8.38730 34349 ft 439 kts 176°
2026-05-04 11:49 47.18277 8.39255 34109 ft 439 kts 176°
2026-05-04 11:49 47.15235 8.39780 33858 ft 439 kts 176°
2026-05-04 11:49 47.12204 8.40303 33589 ft 439 kts 176°
2026-05-04 11:49 47.09167 8.40827 32948 ft 439 kts 176°
2026-05-04 11:50 47.06167 8.41346 32554 ft 431 kts 176°
2026-05-04 11:50 47.03230 8.41853 32035 ft 427 kts 176°
2026-05-04 11:50 47.00288 8.42360 31556 ft 422 kts 176°
2026-05-04 11:50 46.97380 8.42860 31083 ft 418 kts 176°
2026-05-04 11:51 46.94502 8.43355 30617 ft 414 kts 176°
2026-05-04 11:51 46.91649 8.43843 30160 ft 411 kts 176°
2026-05-04 11:51 46.88823 8.44327 29637 ft 408 kts 176°
2026-05-04 11:51 46.86052 8.44800 29151 ft 403 kts 176°
2026-05-04 11:52 46.83288 8.45273 28696 ft 396 kts 175°
2026-05-04 11:52 46.80557 8.45740 28229 ft 392 kts 175°
2026-05-04 11:52 46.77850 8.46201 27751 ft 388 kts 175°
2026-05-04 11:52 46.75210 8.46650 27313 ft 384 kts 175°
2026-05-04 11:53 46.72558 8.47101 26865 ft 382 kts 175°
2026-05-04 11:53 46.69924 8.47548 26413 ft 379 kts 175°
2026-05-04 11:53 46.67309 8.47992 25949 ft 376 kts 175°
2026-05-04 11:53 46.64745 8.48427 25536 ft 373 kts 175°
2026-05-04 11:55 46.47077 8.51414 22384 ft 358 kts 175°
2026-05-04 11:55 46.44606 8.51830 21945 ft 355 kts 175°
2026-05-04 11:56 46.42157 8.52241 21509 ft 353 kts 175°
2026-05-04 11:56 46.39727 8.52650 21097 ft 351 kts 175°
2026-05-04 11:56 46.37311 8.53056 20675 ft 348 kts 175°
2026-05-04 11:56 46.34910 8.53459 20264 ft 345 kts 175°
2026-05-04 11:57 46.32516 8.53860 19625 ft 350 kts 175°
2026-05-04 11:57 46.30107 8.54289 19186 ft 349 kts 172°
2026-05-04 11:57 46.27750 8.55243 18734 ft 352 kts 163°
2026-05-04 11:57 46.25449 8.56409 18510 ft 349 kts 163°
2026-05-04 11:58 46.23145 8.57586 18290 ft 355 kts 163°
2026-05-04 11:58 46.20830 8.58761 18001 ft 357 kts 163°
2026-05-04 11:58 46.18492 8.59938 17762 ft 354 kts 163°
2026-05-04 11:58 46.16166 8.61101 17533 ft 353 kts 163°
2026-05-04 11:59 46.13842 8.62255 17247 ft 352 kts 163°
2026-05-04 11:59 46.11532 8.63396 16990 ft 350 kts 163°
2026-05-04 11:59 46.09218 8.64538 16751 ft 351 kts 163°
2026-05-04 11:59 46.06903 8.65678 16501 ft 352 kts 164°
2026-05-04 12:00 46.04591 8.66815 16239 ft 351 kts 163°
2026-05-04 12:00 46.02304 8.67939 16010 ft 350 kts 164°
2026-05-04 12:00 45.99994 8.69072 15760 ft 350 kts 164°
2026-05-04 12:00 45.97688 8.70202 15505 ft 348 kts 164°
2026-05-04 12:01 45.95401 8.71323 15264 ft 346 kts 164°
2026-05-04 12:01 45.93129 8.72435 14936 ft 343 kts 164°
2026-05-04 12:02 45.79915 8.78882 12505 ft 327 kts 163°
2026-05-04 12:03 45.77767 8.79927 12084 ft 324 kts 163°
2026-05-04 12:03 45.75667 8.80948 11733 ft 320 kts 163°
2026-05-04 12:03 45.73588 8.81959 11624 ft 309 kts 163°
2026-05-04 12:03 45.71575 8.82937 11487 ft 300 kts 163°
2026-05-04 12:04 45.69625 8.83883 11377 ft 290 kts 163°
2026-05-04 12:04 45.67744 8.84795 11262 ft 281 kts 163°
2026-05-04 12:04 45.65920 8.85678 11152 ft 272 kts 163°
2026-05-04 12:04 45.64170 8.86525 11044 ft 264 kts 163°
2026-05-04 12:05 45.62456 8.87354 10943 ft 256 kts 163°
2026-05-04 12:05 45.60765 8.88060 10722 ft 252 kts 170°
2026-05-04 12:05 45.59049 8.88516 10498 ft 249 kts 171°
2026-05-04 12:05 45.57343 8.88940 10241 ft 248 kts 171°
2026-05-04 12:06 45.55644 8.89377 9971 ft 247 kts 171°
2026-05-04 12:06 45.53976 8.89819 9682 ft 247 kts 170°
2026-05-04 12:06 45.52290 8.90273 9410 ft 246 kts 170°
2026-05-04 12:06 45.50603 8.90729 9114 ft 245 kts 170°
2026-05-04 12:07 45.48904 8.91190 8655 ft 252 kts 170°
2026-05-04 12:07 45.47159 8.91664 8186 ft 258 kts 169°
2026-05-04 12:07 45.45374 8.92149 7697 ft 265 kts 169°
2026-05-04 12:07 45.43560 8.92642 7191 ft 272 kts 169°
2026-05-04 12:08 45.41653 8.92884 6663 ft 280 kts 187°
2026-05-04 12:08 45.39828 8.91874 6136 ft 288 kts 214°
2026-05-04 12:08 45.38482 8.89758 5711 ft 292 kts 239°
2026-05-04 12:08 45.37831 8.87080 5411 ft 282 kts 256°
2026-05-04 12:09 45.37536 8.84368 5099 ft 274 kts 269°
2026-05-04 12:09 45.38015 8.81804 4881 ft 268 kts 298°
2026-05-04 12:09 45.39203 8.79828 4720 ft 259 kts 319°
2026-05-04 12:09 45.40727 8.78627 4633 ft 250 kts 340°
2026-05-04 12:10 45.42388 8.77987 4476 ft 247 kts 347°
2026-05-04 12:10 45.44087 8.77519 4175 ft 249 kts 348°
2026-05-04 12:10 45.45801 8.77065 3827 ft 248 kts 348°
2026-05-04 12:10 45.46919 8.76760 3590 ft 246 kts 348°
2026-05-04 12:11 45.49104 8.76154 3141 ft 233 kts 347°
2026-05-04 12:11 45.50137 8.75868 2943 ft 221 kts 347°
2026-05-04 12:11 45.51606 8.75459 2687 ft 208 kts 347°
2026-05-04 12:11 45.52995 8.75074 2452 ft 201 kts 347°
2026-05-04 12:12 45.54785 8.74579 2103 ft 190 kts 346°
2026-05-04 12:12 45.55628 8.74343 1906 ft 182 kts 347°
2026-05-04 12:12 45.56812 8.74015 1664 ft 164 kts 347°
2026-05-04 12:12 45.57883 8.73720 1479 ft 156 kts 348°
2026-05-04 12:13 45.58927 8.73441 1272 ft 149 kts 347°
2026-05-04 12:14 45.63318 8.71985 749 ft 18 kts 259°
2026-05-04 12:15 45.63253 8.71864 751 ft 18 kts 175°
2026-05-04 12:15 45.63133 8.71897 750 ft 17 kts 169°
2026-05-04 12:15 45.62997 8.71935 750 ft 24 kts 169°
2026-05-04 12:15 45.62814 8.71985 750 ft 29 kts 169°
2026-05-04 12:16 45.62681 8.71998 751 ft 13 kts 223°
2026-05-04 12:16 45.62655 8.71868 749 ft 15 kts 259°
2026-05-04 12:16 45.62633 8.71704 752 ft 14 kts 259°
2026-05-04 12:16 45.62595 8.71661 752 ft 8 kts 177°
2026-05-04 12:17 45.62552 8.71672 748 ft 0 kts 169°